Regional Weather Roundup
Issued by NWS Sterling, VA

Home | Current Version | Previous Version | Text Only | Print | Product List | Glossary Off
Versions: 1 2 3 4 5 6 7 8 9 10 11 12 13 14 15 16 17 18 19 20 21 22 23 24 25 26 27 28

000
ASUS41 KLWX 292310
RWRLWX

REGIONAL WEATHER ROUNDUP
NATIONAL WEATHER SERVICE BALTIMORE MD/WASHINGTON DC
700 PM EDT FRI JUL 29 2016

Note: "FAIR" indicates few or no clouds below 12,000 feet
with no significant weather and/or obstructions to visibility.
 TC=TEMPERATURE CELSIUS

 * =Non NWS site. Station does not report precipitation (e.g. rain,
    snow, etc.), thunder, or fog.

DCZ001-MDZ009-015-VAZ040>042-051-053>054-300000-
WASHINGTON METRO

CITY           SKY/WX    TMP DP  RH WIND       PRES   REMARKS
WASHINGTON NAT FAIR      87  70  56 S7        29.88S HX  92
DULLES         FAIR      87  67  51 NW3       29.89S HX  90
ANDREWS AFB    SUNNY     85  70  61 SW6       29.88S
FT BELVOIR     FAIR      89  68  49 W5        29.88S HX  92
QUANTICO       FAIR      87  68  52 W5        29.89  HX  90
LEESBURG*      FAIR      90  72  55 W3        29.90S HX  96
MANASSAS*      MOSUNNY   88  70  55 SW3       29.89S HX  92
GAITHERSBURG*  SUNNY     84  68  58 CALM      29.94R

$$

MDZ006>007-011-014-300000-
BALTIMORE METRO

CITY           SKY/WX    TMP DP  RH WIND       PRES   REMARKS
BWI AIRPORT    MOSUNNY   85  73  67 S7        29.87S HX  91
MARTIN STATE   SUNNY     84  75  74 S6        29.89R HX  92
ANNAPOLIS      SUNNY     84  72  67 S8        29.88R
FORT MEADE*    PTSUNNY   81  72  74 SE6       29.91R

$$

MDZ012-015-019>023-300000-
MARYLAND EASTERN SHORE

CITY           SKY/WX    TMP DP  RH WIND       PRES   REMARKS
OCEAN CITY     SUNNY     79  73  82 E6        29.89R
SALISBURY      NOT AVBL
BAY BRIDGE AP* SUNNY     86  73  66 S5        29.89R HX  93
CAMBRIDGE*     MOSUNNY   82  70  65 NW3       29.89R
EASTON*        MOSUNNY   86  75  70 W3        29.93R HX  95

$$

MDZ017>025-300000-
SOUTHERN MARYLAND

CITY           SKY/WX    TMP DP  RH WIND       PRES   REMARKS
PATUXENT RIVER MOSUNNY   85  70  60 CALM      29.89R
ST INIGOES     SUNNY     85  71  63 VRB6      29.89R HX  90
LEONARDTOWN*     N/A     84  68  58 MISG        N/A

$$

MDZ003>005-300000-
NORTH CENTRAL MARYLAND

CITY           SKY/WX    TMP DP  RH WIND       PRES   REMARKS
FREDERICK*     SUNNY     86  70  58 W5        29.92R HX  90
HAGERSTOWN APT SUNNY     88  64  44 W3        29.90R

$$

MDZ501>502-300000-
WESTERN MARYLAND

CITY           SKY/WX    TMP DP  RH WIND       PRES   REMARKS
OAKLAND*       PTSUNNY   73  63  68 CALM      30.04S
CUMBERLAND*    SUNNY     86  68  54 SW6       29.95R

$$

VAZ025>031-300000-
SHENANDOAH VALLEY

CITY           SKY/WX    TMP DP  RH WIND       PRES   REMARKS
WINCHESTER*    FAIR      84  64  51 SW3       29.91S
FRONT ROYAL*   FAIR      81  72  74 SW3       29.91R
LURAY*         NOT AVBL
NEW MARKET*    FAIR     N/A N/A N/A CALM      29.92R
STAUNTON*      FAIR      82  67  60 CALM      29.97R
WAYNESBORO*    FAIR      82  65  57 CALM      29.97S

$$

WVZ021-048>050-054>055-300000-
EASTERN WEST VIRGINIA PANHANDLE

CITY           SKY/WX    TMP DP  RH WIND       PRES   REMARKS
MARTINSBURG    FAIR      87  65  47 SW3       29.89R
PETERSBURG*    FAIR      86  68  54 CALM      29.94R

$$

VAZ036>039-050-300000-
CENTRAL FOOTHILLS

CITY           SKY/WX    TMP DP  RH WIND       PRES   REMARKS
CHARLOTTESVILL FAIR      88  67  49 E5        29.92R HX  91
CULPEPER*      FAIR      87  68  52 CALM      29.91S HX  90
ORANGE*          N/A     84  72  65 CALM      29.93S
GORDONSVILLE*  FAIR      85  72  63 CALM      29.90F HX  91
WARRENTON*     FAIR      89  60  37 CALM      29.90S

$$

VAZ055>057-300000-
NORTH AND CENTRAL PIEDMONT

CITY           SKY/WX    TMP DP  RH WIND       PRES   REMARKS
FREDERICKSBRG*   N/A     87  73  62 S5        29.88F HX  94
STAFFORD*      FAIR      85  69  58 CALM      29.94S

$$

NCZ024-NYZ072-PAZ021-071-VAZ022-071-300000-
OTHER REGIONAL OBSERVATIONS

CITY           SKY/WX    TMP DP  RH WIND       PRES   REMARKS
NEW YORK CITY  SUNNY     81  69  67 VRB3      29.89R
PHILADELPHIA   MOSUNNY   85  68  56 S7        29.87R
PITTSBURGH     MOSUNNY   84  61  45 VRB3      29.93S
ROANOKE        PTSUNNY   85  67  54 CALM      29.97R
RICHMOND       FAIR      85  69  58 NW6       29.91R
RALEIGH        MOSUNNY   90  68  48 N3        29.93R HX  94

$$

ANZ530>537-300000-
MARINE OBSERVATIONS

STATION/POSITION TIME  TEMP    WIND        PRES
                       AIR SEA DIR/SP/G
                 (UTC) (F)     (DEG/KT/KT) (MB)
THOMAS PT LIGHT  2300   83 84  170/  6/  6 1013.4R
BALT KEY BRIDGE  2206                      1011.5
COVE POINT       2206                      1012.5
LEWISETTA        2206      87              1011.9
SOLOMONS ISLAND  2206      85                N/A
PINEY POINT      2148          290/  5/  6   N/A

$$





USA.gov is the U.S. government's official web portal to all federal, state and local government web resources and services.